Precipitable_Water
0.82 0.94 1.08 1.24 1.27 1.25 1.23 1.14 1.06 0.96 0.78 0.73 0.71 0.72 0.72 0.73 0.73 0.71 0.69 0.66 0.62 0.58 0.57 0.62 0.63 0.64 0.57 0.38 0.31 0.37 0.37 0.38 0.34 0.32 0.28 0.26 0.25 0.23 0.21 0.21 0.20 0.18 0.21 0.20 0.20 0.25 0.33
0.65 0.70 0.75 0.81 0.90 1.10 1.18 1.25 1.27 1.14 1.09 0.94 0.74 0.68 0.67 0.67 0.70 0.71 0.72 0.71 0.68 0.60 0.53 0.55 0.61 0.66 0.54 0.36 0.52 0.45 0.42 0.36 0.34 0.31 0.30 0.30 0.29 0.25 0.23 0.21 0.19 0.25 0.19 0.19 0.19 0.21 0.40
0.58 0.59 0.60 0.62 0.67 0.78 0.83 0.92 1.06 1.17 1.17 1.10 1.04 0.90 0.80 0.69 0.69 0.74 0.74 0.73 0.73 0.73 0.66 0.58 0.62 0.61 0.45 0.45 0.55 0.56 0.53 0.35 0.35 0.32 0.28 0.32 0.29 0.26 0.29 0.22 0.25 0.19 0.16 0.18 0.20 0.26 0.38
0.55 0.56 0.54 0.51 0.49 0.51 0.54 0.59 0.71 0.83 0.91 0.99 1.02 1.00 0.93 0.89 0.88 0.81 0.79 0.81 0.75 0.76 0.75 0.70 0.71 0.61 0.39 0.56 0.55 0.56 0.63 0.47 0.47 0.34 0.31 0.33 0.30 0.27 0.25 0.29 0.21 0.19 0.19 0.17 0.23 0.33 0.48
0.54 0.55 0.53 0.53 0.50 0.47 0.46 0.47 0.51 0.59 0.65 0.68 0.70 0.82 0.86 0.83 0.84 0.89 0.94 0.93 0.86 0.83 0.76 0.75 0.64 0.65 0.42 0.61 0.47 0.58 0.62 0.52 0.49 0.42 0.36 0.31 0.29 0.27 0.29 0.24 0.23 0.24 0.20 0.20 0.23 0.38 0.44
0.47 0.49 0.48 0.49 0.49 0.49 0.47 0.46 0.45 0.43 0.45 0.51 0.53 0.53 0.63 0.69 0.71 0.73 0.78 0.83 0.78 0.83 0.83 0.77 0.63 0.50 0.56 0.51 0.60 0.61 0.60 0.55 0.49 0.47 0.43 0.38 0.35 0.33 0.35 0.33 0.26 0.28 0.26 0.25 0.26 0.38 0.46
0.49 0.47 0.47 0.45 0.45 0.47 0.48 0.46 0.43 0.42 0.41 0.39 0.40 0.40 0.41 0.49 0.56 0.57 0.68 0.76 0.66 0.66 0.78 0.57 0.51 0.44 0.50 0.55 0.51 0.40 0.58 0.61 0.56 0.47 0.40 0.45 0.40 0.36 0.40 0.39 0.36 0.33 0.30 0.29 0.32 0.36 0.34
0.54 0.50 0.46 0.46 0.48 0.45 0.46 0.46 0.44 0.41 0.40 0.39 0.38 0.38 0.36 0.34 0.34 0.41 0.68 0.64 0.68 0.80 0.53 0.57 0.48 0.40 0.42 0.48 0.36 0.39 0.46 0.41 0.42 0.37 0.44 0.42 0.33 0.41 0.39 0.36 0.35 0.34 0.32 0.33 0.38 0.37 0.36
0.58 0.56 0.52 0.46 0.46 0.48 0.46 0.45 0.45 0.43 0.39 0.37 0.36 0.36 0.35 0.32 0.30 0.48 0.60 0.62 0.80 0.82 0.48 0.39 0.49 0.41 0.40 0.40 0.31 0.35 0.41 0.35 0.32 0.27 0.29 0.27 0.35 0.33 0.30 0.29 0.29 0.32 0.32 0.33 0.32 0.33 0.33
0.55 0.56 0.54 0.54 0.51 0.47 0.48 0.47 0.46 0.44 0.40 0.38 0.36 0.35 0.33 0.28 0.36 0.54 0.58 0.68 0.75 0.82 0.29 0.27 0.28 0.41 0.45 0.47 0.34 0.45 0.45 0.37 0.31 0.24 0.26 0.26 0.32 0.29 0.28 0.26 0.30 0.25 0.32 0.27 0.25 0.24 0.21
0.50 0.53 0.52 0.51 0.51 0.51 0.50 0.49 0.48 0.46 0.41 0.39 0.38 0.36 0.34 0.32 0.34 0.49 0.71 0.68 0.72 0.65 0.11 0.21 0.31 0.56 0.49 0.40 0.40 0.43 0.57 0.45 0.34 0.31 0.31 0.32 0.28 0.26 0.27 0.30 0.30 0.24 0.28 0.24 0.24 0.22 0.22
0.48 0.51 0.51 0.51 0.51 0.50 0.50 0.53 0.50 0.48 0.44 0.41 0.39 0.37 0.35 0.35 0.33 0.56 0.62 0.67 0.69 0.22 0.11 0.17 0.29 0.26 0.28 0.34 0.33 0.42 0.43 0.50 0.48 0.33 0.29 0.30 0.34 0.28 0.25 0.28 0.25 0.27 0.24 0.24 0.26 0.26 0.19
0.48 0.48 0.49 0.50 0.50 0.49 0.50 0.50 0.52 0.49 0.48 0.43 0.42 0.38 0.35 0.35 0.33 0.46 0.62 0.61 0.23 0.12 0.15 0.17 0.20 0.25 0.24 0.24 0.25 0.28 0.29 0.28 0.23 0.22 0.25 0.32 0.27 0.28 0.26 0.22 0.28 0.26 0.24 0.18 0.18 0.21 0.20
0.50 0.49 0.49 0.50 0.51 0.50 0.51 0.49 0.50 0.48 0.49 0.48 0.43 0.39 0.39 0.37 0.38 0.41 0.60 0.41 0.15 0.12 0.12 0.21 0.22 0.24 0.21 0.27 0.26 0.24 0.24 0.21 0.25 0.23 0.15 0.15 0.17 0.27 0.28 0.22 0.24 0.29 0.25 0.19 0.15 0.14 0.17
0.50 0.49 0.48 0.48 0.50 0.50 0.51 0.51 0.50 0.50 0.48 0.46 0.42 0.46 0.39 0.41 0.43 0.41 0.50 0.27 0.14 0.15 0.15 0.13 0.22 0.21 0.19 0.26 0.23 0.22 0.19 0.16 0.21 0.29 0.17 0.14 0.16 0.29 0.30 0.27 0.24 0.26 0.21 0.28 0.22 0.20 0.16
0.48 0.47 0.45 0.47 0.48 0.49 0.49 0.53 0.53 0.51 0.51 0.48 0.40 0.38 0.34 0.51 0.42 0.39 0.42 0.23 0.25 0.31 0.30 0.27 0.17 0.18 0.14 0.20 0.19 0.17 0.19 0.25 0.23 0.30 0.28 0.20 0.17 0.27 0.30 0.31 0.27 0.22 0.28 0.22 0.25 0.18 0.15
0.44 0.45 0.45 0.44 0.45 0.48 0.48 0.49 0.53 0.55 0.52 0.50 0.39 0.30 0.50 0.46 0.41 0.32 0.24 0.28 0.31 0.44 0.40 0.29 0.19 0.15 0.15 0.15 0.18 0.24 0.22 0.25 0.29 0.34 0.33 0.26 0.25 0.19 0.28 0.27 0.22 0.24 0.24 0.26 0.24 0.21 0.16
0.43 0.42 0.43 0.42 0.43 0.44 0.48 0.48 0.51 0.54 0.54 0.49 0.41 0.25 0.54 0.45 0.21 0.23 0.23 0.31 0.41 0.41 0.48 0.40 0.33 0.32 0.22 0.20 0.18 0.19 0.21 0.26 0.44 0.39 0.26 0.40 0.31 0.20 0.20 0.25 0.26 0.30 0.27 0.32 0.27 0.23 0.27
0.40 0.40 0.41 0.41 0.40 0.40 0.44 0.48 0.50 0.54 0.55 0.50 0.38 0.34 0.56 0.38 0.18 0.18 0.23 0.30 0.38 0.41 0.40 0.41 0.39 0.40 0.40 0.31 0.28 0.26 0.22 0.48 0.45 0.44 0.38 0.40 0.23 0.14 0.16 0.26 0.31 0.29 0.31 0.33 0.29 0.26 0.19
0.36 0.37 0.38 0.40 0.39 0.40 0.41 0.44 0.49 0.52 0.56 0.51 0.40 0.28 0.34 0.37 0.30 0.27 0.24 0.24 0.27 0.43 0.38 0.43 0.38 0.44 0.35 0.32 0.36 0.29 0.33 0.49 0.47 0.44 0.39 0.39 0.28 0.21 0.17 0.19 0.21 0.27 0.37 0.37 0.34 0.25 0.22
0.34 0.33 0.35 0.37 0.38 0.37 0.40 0.41 0.47 0.51 0.56 0.52 0.41 0.32 0.36 0.29 0.26 0.26 0.30 0.29 0.23 0.25 0.32 0.29 0.29 0.33 0.31 0.28 0.31 0.31 0.35 0.41 0.39 0.36 0.32 0.35 0.25 0.30 0.25 0.21 0.22 0.22 0.26 0.28 0.28 0.29 0.29
0.29 0.31 0.32 0.32 0.35 0.37 0.38 0.41 0.42 0.51 0.56 0.47 0.34 0.33 0.38 0.32 0.32 0.31 0.27 0.26 0.26 0.24 0.26 0.25 0.23 0.22 0.21 0.22 0.27 0.22 0.23 0.26 0.25 0.28 0.25 0.27 0.20 0.25 0.20 0.21 0.29 0.31 0.27 0.21 0.20 0.23 0.24
0.26 0.25 0.28 0.31 0.32 0.36 0.37 0.39 0.43 0.50 0.54 0.44 0.45 0.47 0.43 0.35 0.32 0.26 0.26 0.29 0.26 0.28 0.29 0.30 0.28 0.27 0.24 0.26 0.30 0.32 0.34 0.35 0.34 0.29 0.26 0.25 0.24 0.25 0.18 0.20 0.25 0.23 0.17 0.19 0.20 0.20 0.21
0.28 0.25 0.24 0.25 0.30 0.36 0.39 0.40 0.43 0.46 0.51 0.50 0.48 0.48 0.38 0.27 0.29 0.29 0.28 0.26 0.26 0.28 0.27 0.31 0.31 0.27 0.33 0.39 0.36 0.34 0.31 0.30 0.29 0.27 0.29 0.24 0.22 0.23 0.16 0.18 0.13 0.13 0.19 0.18 0.18 0.20 0.23
0.28 0.26 0.26 0.25 0.26 0.32 0.41 0.41 0.41 0.44 0.49 0.49 0.54 0.49 0.42 0.30 0.33 0.32 0.30 0.29 0.30 0.28 0.27 0.28 0.31 0.34 0.37 0.32 0.24 0.20 0.17 0.19 0.20 0.23 0.23 0.25 0.22 0.20 0.17 0.14 0.16 0.15 0.14 0.14 0.14 0.14 0.17
0.28 0.27 0.27 0.27 0.26 0.31 0.37 0.40 0.39 0.42 0.46 0.50 0.51 0.60 0.50 0.36 0.30 0.34 0.32 0.31 0.28 0.29 0.30 0.31 0.36 0.38 0.34 0.27 0.23 0.15 0.12 0.14 0.13 0.18 0.23 0.25 0.27 0.24 0.19 0.15 0.12 0.14 0.16 0.19 0.22 0.16 0.21
0.29 0.27 0.28 0.27 0.28 0.28 0.34 0.39 0.38 0.41 0.45 0.49 0.50 0.60 0.50 0.37 0.42 0.42 0.34 0.31 0.35 0.34 0.30 0.35 0.36 0.33 0.36 0.29 0.22 0.17 0.15 0.19 0.14 0.14 0.14 0.20 0.26 0.23 0.21 0.20 0.19 0.19 0.19 0.24 0.15 0.15 0.25
0.30 0.30 0.28 0.27 0.29 0.29 0.35 0.35 0.42 0.43 0.42 0.48 0.49 0.62 0.53 0.42 0.43 0.45 0.44 0.39 0.37 0.37 0.30 0.33 0.31 0.33 0.32 0.27 0.24 0.22 0.19 0.20 0.20 0.20 0.18 0.18 0.19 0.24 0.27 0.23 0.18 0.27 0.28 0.23 0.26 0.31 0.33
0.30 0.29 0.28 0.28 0.30 0.34 0.35 0.37 0.44 0.44 0.39 0.49 0.46 0.61 0.64 0.50 0.43 0.52 0.49 0.49 0.45 0.42 0.37 0.36 0.34 0.32 0.37 0.31 0.31 0.29 0.24 0.24 0.22 0.16 0.23 0.19 0.24 0.23 0.24 0.24 0.33 0.34 0.28 0.38 0.45 0.42 0.39
Wind_Speed
20 21 22 22 21 20 23 23 21 20 20 20 20 20 19 19 19 18 18 18 18 18 18 17 17 16 14 16 16 14 15 15 15 14 13 13 12 12 13 12 13 14 11 12 13 14 14
22 22 23 23 24 24 23 24 26 25 23 22 22 22 21 21 21 21 20 20 20 20 20 20 19 19 18 20 17 18 17 17 17 16 15 14 13 14 15 15 15 12 16 17 17 16 14
22 23 23 23 24 25 25 25 26 27 28 26 26 25 24 24 24 23 23 23 23 23 23 22 21 20 22 23 19 20 19 19 19 18 18 16 16 16 15 17 15 17 19 19 18 17 17
21 22 23 24 24 25 25 26 26 26 27 28 32 29 28 28 27 27 26 26 26 26 25 23 23 22 23 22 22 21 20 20 19 20 19 18 18 18 18 17 20 20 20 20 11 15 16
22 23 23 24 25 25 26 26 26 27 28 27 27 29 31 32 30 30 30 30 30 29 27 25 24 23 24 21 20 20 21 21 20 20 20 20 20 20 19 20 20 20 20 17 16 17 18
23 24 24 25 25 26 26 26 27 27 28 28 28 29 30 31 32 33 33 33 32 29 27 26 26 24 26 22 21 23 23 22 20 19 19 20 19 19 19 20 20 17 18 18 18 14 18
24 24 25 26 26 26 26 27 27 28 28 28 28 28 28 29 29 30 30 29 28 27 26 27 26 27 27 24 25 23 21 22 22 21 22 18 20 20 16 18 19 19 20 21 21 21 20
25 25 25 26 26 27 27 27 28 28 28 28 29 28 28 28 28 28 25 22 21 24 28 30 31 30 28 26 25 24 22 22 21 22 18 19 21 15 16 17 18 18 19 20 19 17 17
25 25 26 26 27 28 28 28 28 28 28 29 28 28 28 28 27 25 24 22 22 22 24 24 25 24 23 23 22 23 21 20 20 21 20 21 14 14 16 16 17 18 19 19 19 19 21
25 25 26 27 28 28 29 29 29 29 29 28 28 28 27 27 25 24 24 23 22 21 22 22 21 21 20 19 20 19 19 18 18 20 18 18 16 15 15 17 18 18 13 14 17 17 17
25 26 27 27 28 29 30 30 30 30 29 29 28 28 27 25 26 24 24 23 21 19 19 15 19 18 20 19 14 16 17 16 18 16 15 13 15 16 16 16 14 15 13 17 18 19 20
25 26 26 27 28 29 30 31 31 31 31 30 29 28 27 25 26 25 24 23 20 20 22 19 18 20 19 20 18 15 15 16 14 15 17 17 15 16 17 15 16 15 17 19 20 18 17
25 26 26 27 28 28 29 30 31 31 32 31 31 30 29 28 26 26 24 23 21 25 18 22 21 21 22 19 19 18 17 16 15 15 17 16 19 17 16 16 16 16 16 14 13 11 13
26 26 26 27 27 28 28 29 30 30 31 32 32 32 30 30 29 27 26 25 27 28 33 18 20 22 24 20 22 22 20 21 21 20 20 18 15 18 17 17 13 15 17 15 15 14 16
28 28 28 27 27 28 28 28 29 30 30 31 32 31 31 30 28 28 28 31 27 30 26 28 25 25 26 24 21 24 25 24 21 22 22 18 19 17 19 17 17 14 17 16 18 22 22
29 30 29 29 28 28 29 28 29 29 29 29 29 31 32 30 30 30 31 36 32 26 25 27 32 28 30 28 26 26 26 22 25 24 24 22 25 22 22 22 23 23 17 18 17 17 19
31 31 30 31 30 30 29 29 29 29 29 28 28 28 28 29 30 32 37 38 36 28 28 30 31 33 31 33 30 29 26 19 23 23 24 23 24 25 22 23 23 22 24 24 25 24 25
33 32 32 32 32 31 30 30 30 29 29 28 27 27 26 27 30 33 38 38 31 32 31 32 32 32 32 31 32 30 31 22 23 25 24 21 24 27 31 29 29 29 28 25 24 25 26
33 33 34 34 33 33 32 31 30 30 29 28 28 30 28 27 29 34 35 34 39 34 32 31 31 30 30 33 30 33 31 21 24 23 24 25 27 30 33 30 30 30 30 31 32 33 37
34 34 34 34 34 34 34 33 32 31 30 29 28 26 28 29 32 32 32 37 37 32 37 36 34 31 32 33 33 30 33 24 29 27 27 29 31 34 32 30 25 23 26 29 30 31 35
33 34 35 35 35 35 35 34 33 32 31 30 30 29 28 26 31 34 33 31 33 38 33 33 36 38 36 36 37 37 36 35 36 35 34 33 37 37 40 42 39 38 37 38 40 40 37
34 34 34 35 35 35 34 34 33 32 32 32 30 28 29 32 32 30 35 36 34 30 31 32 34 34 33 36 36 37 33 35 38 37 38 38 42 38 44 46 40 38 42 47 48 45 46
34 34 34 35 35 35 34 33 33 32 31 31 32 34 30 29 31 33 32 34 36 33 33 34 33 32 33 33 34 35 37 38 39 38 37 37 36 36 45 44 39 40 50 48 48 49 46
35 35 35 35 35 35 34 34 34 34 34 32 32 30 30 32 31 30 33 33 33 34 34 29 29 31 30 33 36 39 42 43 44 45 43 43 41 38 42 41 42 48 42 46 49 48 46
37 37 37 37 37 37 36 35 36 37 36 35 33 32 29 30 30 30 31 31 31 32 33 33 33 32 31 33 34 34 36 40 45 46 46 45 43 40 41 43 44 48 45 43 42 47 45
40 40 39 40 39 39 39 38 37 38 39 38 37 36 32 29 31 31 29 29 29 28 30 32 31 30 31 30 29 32 30 30 29 28 35 40 42 39 38 42 41 47 44 40 39 46 39
44 43 43 43 42 42 42 41 41 40 40 40 37 38 35 33 33 26 29 28 27 27 25 23 22 24 25 26 30 32 34 32 35 37 36 33 34 40 41 41 44 47 45 40 44 42 35
46 46 47 46 46 45 44 43 42 42 42 41 39 39 38 33 33 31 31 28 25 24 24 22 22 25 25 26 28 29 32 33 36 39 40 39 35 36 40 40 48 42 41 43 45 43 42
47 49 49 48 47 46 45 44 43 42 42 41 38 38 37 35 31 31 36 34 31 31 30 29 28 26 20 21 23 25 30 32 36 38 39 41 41 41 45 44 44 40 40 39 42 42 44
Wind_Direction
252 252 254 256 256 257 253 255 257 259 261 262 262 263 264 265 267 269 269 269 270 271 273 275 275 275 266 253 250 255 263 265 267 271 275 279 278 281 276 280 281 275 274 280 281 284 282
254 255 256 258 258 258 259 258 257 259 261 262 263 263 264 265 267 268 269 270 271 271 271 273 271 272 260 260 254 262 264 264 263 267 270 273 275 280 276 277 278 285 280 280 281 278 276
256 257 258 259 260 260 261 262 262 260 259 261 262 263 265 266 267 268 269 270 271 271 271 270 268 266 261 257 258 262 264 263 262 263 265 267 273 274 280 274 276 277 278 276 269 273 275
259 259 259 261 261 262 262 264 263 262 262 262 260 262 265 266 267 268 270 271 271 270 269 266 265 263 258 257 260 258 263 259 263 260 261 265 269 271 270 276 273 272 271 278 262 270 272
262 262 262 262 262 263 264 264 264 264 265 265 266 264 264 264 267 267 269 271 271 268 265 264 262 258 258 257 254 258 262 262 263 259 259 263 265 267 267 267 271 260 275 268 271 271 275
263 263 264 264 264 264 265 265 265 265 266 266 268 268 268 267 266 268 271 271 267 264 258 259 258 257 251 252 258 261 264 257 259 258 258 257 260 262 260 263 269 286 282 277 274 272 281
264 264 264 265 265 265 265 265 266 266 266 267 268 270 271 269 269 270 272 268 260 258 255 255 258 257 259 260 262 260 258 257 255 255 254 253 260 256 275 275 275 274 274 277 278 279 280
264 265 265 266 265 265 266 266 266 267 267 267 268 268 270 271 271 268 265 264 261 262 262 260 255 255 257 259 258 254 255 252 249 252 248 256 255 265 267 267 266 268 272 273 278 277 282
265 266 267 266 266 266 266 266 267 267 267 267 268 269 270 270 268 261 259 260 265 268 261 260 249 252 250 246 250 248 249 247 246 248 246 255 257 254 263 259 262 264 269 274 278 285 282
266 267 268 268 267 266 266 266 266 267 267 267 268 269 269 271 258 260 253 260 264 266 262 251 246 246 240 245 249 246 244 247 244 246 243 252 251 250 253 257 264 269 271 273 275 279 283
269 269 269 269 269 268 266 266 266 266 267 267 267 267 267 264 259 255 256 258 259 256 259 240 240 241 239 236 241 239 239 241 240 236 239 240 239 249 255 261 263 264 271 274 278 279 284
271 271 272 272 271 269 268 267 266 266 266 266 266 265 264 258 255 253 255 254 248 245 249 244 240 236 231 234 235 234 236 241 246 240 245 253 247 256 257 260 257 270 273 273 271 271 276
273 273 273 273 273 272 270 268 267 265 265 265 264 263 260 255 249 254 251 242 241 241 245 242 242 236 232 231 228 229 229 232 239 241 241 241 246 252 253 254 250 256 269 276 266 246 270
272 274 274 275 274 273 272 270 268 267 266 265 263 262 256 252 251 248 242 237 241 246 240 248 247 235 234 229 234 231 234 243 242 254 257 258 246 238 241 250 267 254 262 267 275 274 282
271 273 274 275 274 274 272 271 269 268 267 266 264 257 254 250 247 241 237 234 243 246 249 244 241 237 234 235 247 239 243 248 248 240 251 263 253 245 250 253 255 253 259 267 272 273 273
271 271 273 274 274 273 272 272 270 268 267 267 262 259 253 247 245 238 237 240 242 247 250 245 243 240 241 235 240 244 247 249 247 251 253 257 257 251 249 254 256 255 267 263 257 271 273
270 271 271 272 273 273 273 272 271 268 268 266 261 256 250 248 242 238 238 237 243 248 250 247 247 247 248 247 246 245 246 247 248 248 250 252 254 258 247 249 256 252 254 257 265 265 272
270 271 272 272 271 271 271 270 270 267 266 263 259 253 252 248 242 241 241 239 246 248 251 249 251 250 249 249 248 250 252 255 252 253 250 253 257 254 253 262 261 257 260 254 254 261 262
270 271 271 271 271 270 269 270 268 266 263 261 258 256 253 248 244 243 243 246 243 246 248 249 248 248 248 248 249 248 246 242 253 257 255 262 255 260 259 257 257 259 258 259 262 265 264
271 271 271 270 271 269 268 268 267 265 261 258 258 257 251 248 248 252 250 245 245 244 248 250 251 249 249 248 247 251 246 247 249 254 259 260 257 255 256 259 270 269 258 256 258 258 265
271 272 271 270 270 269 267 266 264 262 258 254 253 254 254 252 247 247 246 251 247 245 244 248 247 247 250 250 249 250 251 255 255 257 259 256 258 259 262 264 264 262 263 263 262 262 264
271 271 271 270 268 268 266 263 260 258 255 250 251 253 254 254 253 252 242 245 248 245 246 247 247 250 247 250 251 254 257 253 256 260 257 255 259 262 263 263 264 263 260 260 261 265 268
270 272 271 270 268 265 264 261 255 253 250 250 248 250 255 253 251 248 247 243 244 248 250 249 251 252 252 253 254 256 256 257 258 259 259 257 257 258 260 263 264 257 256 261 264 263 267
268 270 270 269 266 263 261 258 253 249 247 248 245 247 247 249 248 249 247 247 247 245 246 245 244 251 252 256 259 259 258 258 257 255 254 255 256 256 262 265 260 259 262 263 265 267 267
268 269 269 269 266 261 259 257 253 248 246 245 244 240 242 246 246 247 244 246 248 247 247 250 252 255 256 257 260 260 256 254 253 253 251 249 252 256 255 257 262 264 261 264 267 269 269
268 268 269 268 266 260 258 255 254 248 244 243 240 237 240 243 244 244 244 243 244 247 250 251 251 253 254 254 253 253 255 260 255 256 248 246 247 248 255 254 258 262 266 264 272 268 269
267 268 269 268 265 260 256 255 253 247 242 239 238 234 235 241 241 245 239 243 243 243 247 248 246 246 248 248 249 251 254 256 255 254 254 254 247 245 251 256 262 263 267 271 265 273 277
267 268 269 267 263 259 254 254 250 245 237 234 235 232 231 239 240 240 240 240 241 241 245 249 254 250 249 249 253 255 256 256 257 254 255 255 257 250 252 252 257 263 265 260 270 271 275
268 269 268 265 260 254 253 250 246 239 230 229 232 229 230 236 241 241 242 243 246 249 251 252 251 254 254 255 255 257 259 262 263 261 258 257 254 259 253 258 261 261 270 268 273 276 276